Location: Cheyres
(46.8153°N, 6.7877°E)
Time: 10:16:23
(UTC+00:00)

Transit 2A Rocket - Visible Passes

Search period start: 28 May 2022 00:00
Search period end: 07 June 2022 00:00
Orbit: 592 x 909 km, 66.7° (Epoch: 27 May)

Date Brightness Start Highest point End Pass type
(mag) Time Alt. Az. Time Alt. Az. Time Alt. Az.
28 May 4.5 20:46:09 10° NNW 20:50:36 76° NE 20:53:29 20° SE visible
28 May 6.8 22:30:35 10° W 22:32:25 12° WSW 22:33:22 12° WSW visible
29 May 5.2 20:03:27 10° NNW 20:07:44 44° NE 20:11:50 10° ESE visible
29 May 6.2 21:46:31 10° WNW 21:49:57 23° WSW 21:51:43 18° SW visible
30 May 5.4 21:03:14 10° NW 21:07:22 41° WSW 21:10:07 18° S visible
31 May 4.6 20:20:15 10° NW 20:24:40 76° WSW 20:28:33 12° SSE visible
01 Jun 6.8 21:21:12 10° WNW 21:23:50 16° WSW 21:26:26 10° SW visible
02 Jun 6.1 20:37:34 10° NW 20:41:18 28° WSW 20:44:59 10° S visible
03 Jun 5.2 19:54:25 10° NW 19:58:41 51° WSW 20:02:50 10° SSE visible
04 Jun 7.2 20:56:46 10° W 20:57:40 11° WSW 20:58:34 10° WSW visible
05 Jun 6.7 20:12:03 10° WNW 20:15:12 20° WSW 20:18:19 10° SSW visible
